When you browse on this site, cookies collect data to enhance your experience and personalize the content and advertising you see.
Visit our Privacy Policy to learn more. By continuing to use the site, you agree to this use of cookies and data.
  • In Portugal
  • List of Countries
  • For 7 days
  • Water Temperature
  • Satellite Maps
  • Weather Map
  • Weather Widgets
  • user-avatar
    Login

    Hourly Weather Smecino

    Today, 22 March, Friday

    Time Temperature Precipitation Wind Pressure Humidity
    00:00 +7°C° 0 mm 4 mps 761 mmHg 91%
    01:00 +7°C° 0 mm 4 mps 761 mmHg 91%
    02:00 +8°C° 0 mm 3 mps 761 mmHg 92%
    03:00 +7°C° 0 mm 3 mps 761 mmHg 93%
    04:00 +7°C° 0 mm 3 mps 761 mmHg 94%
    05:00 +7°C° 0 mm 3 mps 761 mmHg 94%
    06:00 +7°C° 0 mm 2 mps 761 mmHg 95%
    07:00 +7°C° 0 mm 2 mps 762 mmHg 95%
    08:00 +7°C° 0 mm 2 mps 762 mmHg 90%
    09:00 +9°C° 0 mm 1 mps 762 mmHg 86%
    10:00 +9°C° 0 mm 1 mps 763 mmHg 82%
    11:00 +9°C° 0 mm 1 mps 763 mmHg 79%
    12:00 +9°C° 0 mm 0 mps 763 mmHg 77%
    13:00 +9°C° 0 mm 0 mps 763 mmHg 75%
    14:00 +10°C° 0 mm 1 mps 763 mmHg 74%
    15:00 +10°C° 0 mm 1 mps 762 mmHg 73%
    16:00 +9°C° 0 mm 2 mps 762 mmHg 73%
    17:00 +9°C° 0 mm 2 mps 762 mmHg 76%
    18:00 +8°C° 0 mm 2 mps 761 mmHg 80%
    19:00 +7°C° 0 mm 2 mps 761 mmHg 83%
    20:00 +7°C° 0 mm 2 mps 761 mmHg 86%
    21:00 +6°C° 0 mm 2 mps 761 mmHg 89%
    22:00 +6°C° 0 mm 2 mps 760 mmHg 92%
    23:00 +6°C° 0 mm 2 mps 760 mmHg 93%

    Tomorrow, 23 March, Saturday

    Time Temperature Precipitation Wind Pressure Humidity
    00:00 +6°C° 0 mm 2 mps 759 mmHg 93%
    01:00 +5°C° 0 mm 3 mps 759 mmHg 94%
    02:00 +5°C° 0 mm 3 mps 759 mmHg 94%
    03:00 +5°C° 0 mm 3 mps 758 mmHg 94%
    04:00 +5°C° 0 mm 3 mps 758 mmHg 95%
    05:00 +5°C° 0 mm 3 mps 757 mmHg 94%
    06:00 +5°C° 0 mm 3 mps 757 mmHg 94%
    07:00 +5°C° 0 mm 3 mps 757 mmHg 94%
    08:00 +8°C° 0 mm 3 mps 757 mmHg 88%
    09:00 +10°C° 0 mm 3 mps 756 mmHg 82%
    10:00 +12°C° 0 mm 3 mps 756 mmHg 76%
    11:00 +13°C° 0 mm 4 mps 756 mmHg 73%
    12:00 +14°C° 0 mm 4 mps 756 mmHg 70%
    13:00 +15°C° 0 mm 4 mps 756 mmHg 67%
    14:00 +13°C° 0 mm 5 mps 756 mmHg 69%
    15:00 +12°C° 0 mm 5 mps 756 mmHg 71%
    16:00 +9°C° 0 mm 5 mps 756 mmHg 73%
    17:00 +8°C° 0 mm 4 mps 757 mmHg 77%
    18:00 +7°C° 0 mm 4 mps 757 mmHg 81%
    19:00 +6°C° 0 mm 4 mps 758 mmHg 84%
    20:00 +5°C° 0 mm 4 mps 758 mmHg 80%
    21:00 +5°C° 0 mm 3 mps 758 mmHg 77%
    22:00 +4°C° 0 mm 3 mps 759 mmHg 73%
    23:00 +3°C° 0 mm 3 mps 759 mmHg 72%

    Day after tomorrow, 24 March, Sunday

    Time Temperature Precipitation Wind Pressure Humidity
    00:00 +3°C° 0 mm 3 mps 759 mmHg 72%
    01:00 +3°C° 0 mm 3 mps 759 mmHg 72%
    02:00 +2°C° 0 mm 3 mps 759 mmHg 73%
    03:00 +2°C° 0 mm 3 mps 759 mmHg 74%
    04:00 +2°C° 0 mm 3 mps 759 mmHg 76%
    05:00 +2°C° 0 mm 3 mps 759 mmHg 77%
    06:00 +3°C° 0 mm 2 mps 759 mmHg 78%
    07:00 +3°C° 0 mm 2 mps 759 mmHg 79%
    08:00 +4°C° 0 mm 2 mps 759 mmHg 73%
    09:00 +4°C° 0 mm 3 mps 759 mmHg 67%
    10:00 +5°C° 0 mm 3 mps 758 mmHg 61%
    11:00 +5°C° 0 mm 3 mps 758 mmHg 60%
    12:00 +7°C° 0 mm 3 mps 758 mmHg 58%
    13:00 +6°C° 0 mm 4 mps 757 mmHg 56%
    14:00 +6°C° 0 mm 4 mps 757 mmHg 56%
    15:00 +6°C° 0 mm 4 mps 756 mmHg 55%
    16:00 +6°C° 0 mm 4 mps 756 mmHg 54%
    17:00 +5°C° 0 mm 3 mps 755 mmHg 60%
    18:00 +3°C° 0 mm 3 mps 755 mmHg 65%
    19:00 +3°C° 0 mm 2 mps 755 mmHg 71%
    20:00 +3°C° 0 mm 2 mps 754 mmHg 72%
    21:00 +2°C° 0 mm 3 mps 754 mmHg 73%
    22:00 +1°C° 0 mm 3 mps 754 mmHg 74%
    23:00 +1°C° 0 mm 3 mps 753 mmHg 75%

    25 March, Monday

    Time Temperature Precipitation Wind Pressure Humidity
    00:00 0°C° 0 mm 4 mps 753 mmHg 77%
    01:00 0°C° 0 mm 4 mps 752 mmHg 79%
    02:00 0°C° 0 mm 4 mps 751 mmHg 81%
    03:00 0°C° 0 mm 5 mps 751 mmHg 84%
    04:00 -1°C° 0 mm 5 mps 750 mmHg 86%
    05:00 -1°C° 0.3 mm 6 mps 749 mmHg 85%
    06:00 +1°C° 0.3 mm 6 mps 748 mmHg 84%
    07:00 0°C° 0.3 mm 7 mps 748 mmHg 82%
    08:00 0°C° 0.6 mm 7 mps 747 mmHg 80%
    09:00 +2°C° 0.6 mm 7 mps 747 mmHg 77%
    10:00 +2°C° 0.6 mm 7 mps 747 mmHg 74%
    11:00 +3°C° 0.4 mm 7 mps 747 mmHg 71%
    12:00 +3°C° 0.4 mm 7 mps 747 mmHg 68%
    13:00 +3°C° 0.4 mm 7 mps 746 mmHg 64%
    14:00 +3°C° 0.5 mm 7 mps 747 mmHg 66%
    15:00 +3°C° 0.5 mm 6 mps 747 mmHg 67%
    16:00 +3°C° 0.5 mm 6 mps 747 mmHg 68%
    17:00 +2°C° 0 mm 6 mps 748 mmHg 72%
    18:00 +2°C° 0 mm 5 mps 749 mmHg 76%
    19:00 +1°C° 0 mm 5 mps 749 mmHg 81%
    20:00 +1°C° 0.1 mm 6 mps 751 mmHg 81%
    21:00 +1°C° 0.1 mm 6 mps 752 mmHg 82%
    22:00 +1°C° 0.1 mm 6 mps 753 mmHg 82%
    23:00 -1°C° 0 mm 6 mps 754 mmHg 82%

    26 March, Tuesday

    Time Temperature Precipitation Wind Pressure Humidity
    00:00 -1°C° 0 mm 5 mps 755 mmHg 82%
    01:00 -2°C° 0 mm 4 mps 756 mmHg 81%
    02:00 -1°C° 0 mm 3 mps 756 mmHg 81%
    03:00 -1°C° 0 mm 3 mps 757 mmHg 81%
    04:00 -2°C° 0 mm 3 mps 758 mmHg 81%
    05:00 -1°C° 0 mm 3 mps 758 mmHg 78%
    06:00 -1°C° 0 mm 3 mps 758 mmHg 76%
    07:00 -1°C° 0 mm 2 mps 759 mmHg 74%
    08:00 +1°C° 0 mm 3 mps 759 mmHg 69%
    09:00 +1°C° 0 mm 4 mps 759 mmHg 65%
    10:00 +4°C° 0 mm 4 mps 759 mmHg 60%
    11:00 +3°C° 0 mm 5 mps 758 mmHg 61%
    12:00 +4°C° 0 mm 6 mps 758 mmHg 62%
    13:00 +4°C° 0 mm 7 mps 757 mmHg 63%
    14:00 +4°C° 0.1 mm 7 mps 757 mmHg 69%
    15:00 +3°C° 0.1 mm 6 mps 757 mmHg 75%
    16:00 +3°C° 0.1 mm 6 mps 756 mmHg 81%
    17:00 +3°C° 0.2 mm 6 mps 756 mmHg 83%
    18:00 +3°C° 0.2 mm 6 mps 756 mmHg 84%
    19:00 +3°C° 0.2 mm 6 mps 756 mmHg 86%
    20:00 +3°C° 0.2 mm 5 mps 756 mmHg 88%
    21:00 +3°C° 0.2 mm 5 mps 756 mmHg 90%
    22:00 +4°C° 0.2 mm 4 mps 756 mmHg 92%
    23:00 +4°C° 0.1 mm 4 mps 756 mmHg 92%

    27 March, Wednesday

    Time Temperature Precipitation Wind Pressure Humidity
    00:00 +3°C° 0.1 mm 4 mps 756 mmHg 92%
    01:00 +3°C° 0.1 mm 4 mps 757 mmHg 92%
    02:00 +3°C° 0 mm 3 mps 757 mmHg 93%
    03:00 +2°C° 0 mm 3 mps 756 mmHg 94%
    04:00 +2°C° 0 mm 3 mps 756 mmHg 96%
    05:00 +2°C° 0 mm 3 mps 756 mmHg 95%
    06:00 +2°C° 0 mm 3 mps 757 mmHg 94%
    07:00 +3°C° 0 mm 4 mps 757 mmHg 93%
    08:00 +3°C° 0.1 mm 4 mps 757 mmHg 92%
    09:00 +4°C° 0.1 mm 4 mps 757 mmHg 91%
    10:00 +4°C° 0.1 mm 4 mps 757 mmHg 91%
    11:00 +4°C° 0.1 mm 4 mps 757 mmHg 91%
    12:00 +5°C° 0.1 mm 4 mps 757 mmHg 91%
    13:00 +5°C° 0.1 mm 4 mps 758 mmHg 91%
    14:00 +5°C° 0.1 mm 4 mps 758 mmHg 92%
    15:00 +5°C° 0.1 mm 4 mps 758 mmHg 92%
    16:00 +5°C° 0.1 mm 3 mps 758 mmHg 93%
    17:00 +5°C° 0 mm 3 mps 758 mmHg 94%
    18:00 +6°C° 0 mm 2 mps 759 mmHg 96%
    19:00 +6°C° 0 mm 2 mps 759 mmHg 97%
    20:00 +5°C° 0 mm 2 mps 760 mmHg 97%
    21:00 +6°C° 0 mm 1 mps 760 mmHg 98%
    22:00 +5°C° 0 mm 1 mps 761 mmHg 98%
    23:00 +5°C° 0 mm 1 mps 761 mmHg 98%
    Show more